owner,sensor,date,latitude,longitude,vertical_datum,wind_speed,wind_to_direction,wind_speed_of_gust,qcFlag 
DISL,ioos:station:DISL:PPTA:1,2012-08-01T00:00:00Z,30.2791,-87.5561,0.0,3.18,238.1,-9999.0,'1111122,1111122,1111122' 
DISL,ioos:station:DISL:PPTA:1,2012-08-01T00:30:00Z,30.2791,-87.5561,0.0,2.37,241.0,-9999.0,'1111122,1111122,1111122' 
DISL,ioos:station:DISL:PPTA:1,2012-08-01T01:00:00Z,30.2791,-87.5561,0.0,2.38,268.8,-9999.0,'1111122,1111122,1111122' 
DISL,ioos:station:DISL:PPTA:1,2012-08-01T01:30:00Z,30.2791,-87.5561,0.0,1.31,251.9,-9999.0,'1111122,1111122,1111122' 
DISL,ioos:station:DISL:PPTA:1,2012-08-01T02:00:00Z,30.2791,-87.5561,0.0,0.89,263.4,-9999.0,'1111122,1111122,1111122' 
DISL,ioos:station:DISL:PPTA:1,2012-08-01T02:30:00Z,30.2791,-87.5561,0.0,1.36,249.2,-9999.0,'1111122,1111122,1111122' 
DISL,ioos:station:DISL:PPTA:1,2012-08-01T03:00:00Z,30.2791,-87.5561,0.0,1.81,240.1,-9999.0,'1111122,1111122,1111122' 
DISL,ioos:station:DISL:PPTA:1,2012-08-01T03:30:00Z,30.2791,-87.5561,0.0,1.85,233.8,-9999.0,'1111122,1111122,1111122' 
DISL,ioos:station:DISL:PPTA:1,2012-08-01T04:00:00Z,30.2791,-87.5561,0.0,2.85,237.3,-9999.0,'1111122,1111122,1111122' 
DISL,ioos:station:DISL:PPTA:1,2012-08-01T04:30:00Z,30.2791,-87.5561,0.0,3.16,235.1,-9999.0,'1111122,1111122,1111122' 
DISL,ioos:station:DISL:PPTA:1,2012-08-01T05:00:00Z,30.2791,-87.5561,0.0,3.52,240.8,-9999.0,'1111122,1111122,1111122' 
DISL,ioos:station:DISL:PPTA:1,2012-08-01T05:30:00Z,30.2791,-87.5561,0.0,2.82,240.5,-9999.0,'1111122,1111122,1111122' 
DISL,ioos:station:DISL:PPTA:1,2012-08-01T06:00:00Z,30.2791,-87.5561,0.0,3.32,241.4,-9999.0,'1111122,1111122,1111122' 
DISL,ioos:station:DISL:PPTA:1,2012-08-01T06:30:00Z,30.2791,-87.5561,0.0,2.7,234.4,-9999.0,'1111122,1111122,1111122' 
DISL,ioos:station:DISL:PPTA:1,2012-08-01T07:00:00Z,30.2791,-87.5561,0.0,2.26,233.6,-9999.0,'1111122,1111122,1111122' 
DISL,ioos:station:DISL:PPTA:1,2012-08-01T07:30:00Z,30.2791,-87.5561,0.0,2.8,236.7,-9999.0,'1111122,1111122,1111122' 
DISL,ioos:station:DISL:PPTA:1,2012-08-01T08:00:00Z,30.2791,-87.5561,0.0,3.89,240.7,-9999.0,'1111122,1111122,1111122' 
DISL,ioos:station:DISL:PPTA:1,2012-08-01T08:30:00Z,30.2791,-87.5561,0.0,3.68,237.3,-9999.0,'1111122,1111122,1111122' 
DISL,ioos:station:DISL:PPTA:1,2012-08-01T09:00:00Z,30.2791,-87.5561,0.0,3.34,236.9,-9999.0,'1111122,1111122,1111122' 
DISL,ioos:station:DISL:PPTA:1,2012-08-01T09:30:00Z,30.2791,-87.5561,0.0,3.07,255.1,-9999.0,'1111122,1111122,1111122' 
DISL,ioos:station:DISL:PPTA:1,2012-08-01T10:00:00Z,30.2791,-87.5561,0.0,2.05,278.8,-9999.0,'1111122,1111122,1111122' 
DISL,ioos:station:DISL:PPTA:1,2012-08-01T10:30:00Z,30.2791,-87.5561,0.0,10.21,269.6,-9999.0,'1111122,1111122,1111122' 
DISL,ioos:station:DISL:PPTA:1,2012-08-01T11:00:00Z,30.2791,-87.5561,0.0,4.24,248.9,-9999.0,'1111122,1111122,1111122' 
DISL,ioos:station:DISL:PPTA:1,2012-08-01T11:30:00Z,30.2791,-87.5561,0.0,2.44,209.6,-9999.0,'1111122,1111122,1111122' 
DISL,ioos:station:DISL:PPTA:1,2012-08-01T12:00:00Z,30.2791,-87.5561,0.0,1.54,197.3,-9999.0,'1111122,1111122,1111122' 
DISL,ioos:station:DISL:PPTA:1,2012-08-01T12:30:00Z,30.2791,-87.5561,0.0,1.15,254.2,-9999.0,'1111122,1111122,1111122' 
DISL,ioos:station:DISL:PPTA:1,2012-08-01T13:00:00Z,30.2791,-87.5561,0.0,0.68,291.9,-9999.0,'1111122,1111122,1111122' 
DISL,ioos:station:DISL:PPTA:1,2012-08-01T13:30:00Z,30.2791,-87.5561,0.0,1.91,188.5,-9999.0,'1111122,1111122,1111122' 
DISL,ioos:station:DISL:PPTA:1,2012-08-01T14:00:00Z,30.2791,-87.5561,0.0,1.68,199.4,-9999.0,'1111122,1111122,1111122' 
DISL,ioos:station:DISL:PPTA:1,2012-08-01T14:30:00Z,30.2791,-87.5561,0.0,1.49,209.1,-9999.0,'1111122,1111122,1111122' 
DISL,ioos:station:DISL:PPTA:1,2012-08-01T15:00:00Z,30.2791,-87.5561,0.0,2.74,231.3,-9999.0,'1111122,1111122,1111122' 
DISL,ioos:station:DISL:PPTA:1,2012-08-01T15:30:00Z,30.2791,-87.5561,0.0,3.9,234.8,-9999.0,'1111122,1111122,1111122' 
DISL,ioos:station:DISL:PPTA:1,2012-08-01T16:00:00Z,30.2791,-87.5561,0.0,4.55,240.2,-9999.0,'1111122,1111122,1111122' 
DISL,ioos:station:DISL:PPTA:1,2012-08-01T16:30:00Z,30.2791,-87.5561,0.0,5.18,241.0,-9999.0,'1111122,1111122,1111122' 
DISL,ioos:station:DISL:PPTA:1,2012-08-01T17:00:00Z,30.2791,-87.5561,0.0,7.56,241.5,-9999.0,'1111122,1111122,1111122' 
DISL,ioos:station:DISL:PPTA:1,2012-08-01T17:30:00Z,30.2791,-87.5561,0.0,5.36,238.8,-9999.0,'1111122,1111122,1111122' 
DISL,ioos:station:DISL:PPTA:1,2012-08-01T18:00:00Z,30.2791,-87.5561,0.0,5.19,237.0,-9999.0,'1111122,1111122,1111122' 
DISL,ioos:station:DISL:PPTA:1,2012-08-01T18:30:00Z,30.2791,-87.5561,0.0,4.86,237.2,-9999.0,'1111122,1111122,1111122' 
DISL,ioos:station:DISL:PPTA:1,2012-08-01T19:00:00Z,30.2791,-87.5561,0.0,3.99,232.9,-9999.0,'1111122,1111122,1111122' 
DISL,ioos:station:DISL:PPTA:1,2012-08-01T19:30:00Z,30.2791,-87.5561,0.0,5.85,259.2,-9999.0,'1111122,1111122,1111122' 
DISL,ioos:station:DISL:PPTA:1,2012-08-01T20:00:00Z,30.2791,-87.5561,0.0,5.06,245.5,-9999.0,'1111122,1111122,1111122' 
DISL,ioos:station:DISL:PPTA:1,2012-08-01T20:30:00Z,30.2791,-87.5561,0.0,5.02,255.3,-9999.0,'1111122,1111122,1111122' 
DISL,ioos:station:DISL:PPTA:1,2012-08-01T21:00:00Z,30.2791,-87.5561,0.0,4.18,238.1,-9999.0,'1111122,1111122,1111122' 
DISL,ioos:station:DISL:PPTA:1,2012-08-01T21:30:00Z,30.2791,-87.5561,0.0,3.56,237.8,-9999.0,'1111122,1111122,1111122' 
DISL,ioos:station:DISL:PPTA:1,2012-08-01T22:00:00Z,30.2791,-87.5561,0.0,3.9,236.4,-9999.0,'1111122,1111122,1111122' 
DISL,ioos:station:DISL:PPTA:1,2012-08-01T22:30:00Z,30.2791,-87.5561,0.0,3.63,222.3,-9999.0,'1111122,1111122,1111122' 
DISL,ioos:station:DISL:PPTA:1,2012-08-01T23:00:00Z,30.2791,-87.5561,0.0,5.49,240.2,-9999.0,'1111122,1111122,1111122' 
DISL,ioos:station:DISL:PPTA:1,2012-08-01T23:30:00Z,30.2791,-87.5561,0.0,4.09,237.3,-9999.0,'1111122,1111122,1111122' 
DISL,ioos:station:DISL:PPTA:1,2012-08-02T00:00:00Z,30.2791,-87.5561,0.0,3.83,245.0,-9999.0,'1111122,1111122,1111122' 
DISL,ioos:station:DISL:PPTA:1,2012-08-02T00:30:00Z,30.2791,-87.5561,0.0,1.65,246.5,-9999.0,'1111122,1111122,1111122' 
DISL,ioos:station:DISL:PPTA:1,2012-08-02T01:00:00Z,30.2791,-87.5561,0.0,1.15,212.8,-9999.0,'1111122,1111122,1111122' 
DISL,ioos:station:DISL:PPTA:1,2012-08-02T01:30:00Z,30.2791,-87.5561,0.0,1.84,237.1,-9999.0,'1111122,1111122,1111122' 
DISL,ioos:station:DISL:PPTA:1,2012-08-02T02:00:00Z,30.2791,-87.5561,0.0,2.28,179.8,-9999.0,'1111122,1111122,1111122' 
DISL,ioos:station:DISL:PPTA:1,2012-08-02T02:30:00Z,30.2791,-87.5561,0.0,1.63,183.3,-9999.0,'1111122,1111122,1111122' 
DISL,ioos:station:DISL:PPTA:1,2012-08-02T03:00:00Z,30.2791,-87.5561,0.0,0.99,219.7,-9999.0,'1111122,1111122,1111122' 
DISL,ioos:station:DISL:PPTA:1,2012-08-02T03:30:00Z,30.2791,-87.5561,0.0,2.63,237.1,-9999.0,'1111122,1111122,1111122' 
DISL,ioos:station:DISL:PPTA:1,2012-08-02T04:00:00Z,30.2791,-87.5561,0.0,1.05,209.8,-9999.0,'1111122,1111122,1111122' 
DISL,ioos:station:DISL:PPTA:1,2012-08-02T04:30:00Z,30.2791,-87.5561,0.0,0.93,221.1,-9999.0,'1111122,1111122,1111122' 
DISL,ioos:station:DISL:PPTA:1,2012-08-02T05:00:00Z,30.2791,-87.5561,0.0,2.0,231.7,-9999.0,'1111122,1111122,1111122' 
DISL,ioos:station:DISL:PPTA:1,2012-08-02T05:30:00Z,30.2791,-87.5561,0.0,1.24,220.5,-9999.0,'1111122,1111122,1111122' 
DISL,ioos:station:DISL:PPTA:1,2012-08-02T06:00:00Z,30.2791,-87.5561,0.0,1.17,223.6,-9999.0,'1111122,1111122,1111122' 
DISL,ioos:station:DISL:PPTA:1,2012-08-02T06:30:00Z,30.2791,-87.5561,0.0,1.96,226.4,-9999.0,'1111122,1111122,1111122' 
DISL,ioos:station:DISL:PPTA:1,2012-08-02T07:00:00Z,30.2791,-87.5561,0.0,2.05,228.4,-9999.0,'1111122,1111122,1111122' 
DISL,ioos:station:DISL:PPTA:1,2012-08-02T07:30:00Z,30.2791,-87.5561,0.0,2.76,233.0,-9999.0,'1111122,1111122,1111122' 
DISL,ioos:station:DISL:PPTA:1,2012-08-02T08:00:00Z,30.2791,-87.5561,0.0,2.3,237.7,-9999.0,'1111122,1111122,1111122' 
DISL,ioos:station:DISL:PPTA:1,2012-08-02T08:30:00Z,30.2791,-87.5561,0.0,3.08,242.4,-9999.0,'1111122,1111122,1111122' 
DISL,ioos:station:DISL:PPTA:1,2012-08-02T09:00:00Z,30.2791,-87.5561,0.0,1.86,244.4,-9999.0,'1111122,1111122,1111122' 
DISL,ioos:station:DISL:PPTA:1,2012-08-02T09:30:00Z,30.2791,-87.5561,0.0,2.38,251.6,-9999.0,'1111122,1111122,1111122' 
DISL,ioos:station:DISL:PPTA:1,2012-08-02T10:00:00Z,30.2791,-87.5561,0.0,2.92,249.4,-9999.0,'1111122,1111122,1111122' 
DISL,ioos:station:DISL:PPTA:1,2012-08-02T10:30:00Z,30.2791,-87.5561,0.0,3.01,242.9,-9999.0,'1111122,1111122,1111122' 
DISL,ioos:station:DISL:PPTA:1,2012-08-02T11:00:00Z,30.2791,-87.5561,0.0,1.95,251.7,-9999.0,'1111122,1111122,1111122' 
DISL,ioos:station:DISL:PPTA:1,2012-08-02T11:30:00Z,30.2791,-87.5561,0.0,2.6,257.2,-9999.0,'1111122,1111122,1111122' 
DISL,ioos:station:DISL:PPTA:1,2012-08-02T12:00:00Z,30.2791,-87.5561,0.0,2.74,262.8,-9999.0,'1111122,1111122,1111122' 
DISL,ioos:station:DISL:PPTA:1,2012-08-02T12:30:00Z,30.2791,-87.5561,0.0,2.88,259.0,-9999.0,'1111122,1111122,1111122' 
DISL,ioos:station:DISL:PPTA:1,2012-08-02T13:00:00Z,30.2791,-87.5561,0.0,3.68,266.6,-9999.0,'1111122,1111122,1111122' 
DISL,ioos:station:DISL:PPTA:1,2012-08-02T13:30:00Z,30.2791,-87.5561,0.0,4.37,268.1,-9999.0,'1111122,1111122,1111122' 
DISL,ioos:station:DISL:PPTA:1,2012-08-02T14:00:00Z,30.2791,-87.5561,0.0,4.31,270.3,-9999.0,'1111122,1111122,1111122' 
DISL,ioos:station:DISL:PPTA:1,2012-08-02T14:30:00Z,30.2791,-87.5561,0.0,5.07,274.7,-9999.0,'1111122,1111122,1111122' 
DISL,ioos:station:DISL:PPTA:1,2012-08-02T15:00:00Z,30.2791,-87.5561,0.0,3.97,290.0,-9999.0,'1111122,1111122,1111122' 
DISL,ioos:station:DISL:PPTA:1,2012-08-02T15:30:00Z,30.2791,-87.5561,0.0,3.68,270.5,-9999.0,'1111122,1111122,1111122' 
DISL,ioos:station:DISL:PPTA:1,2012-08-02T16:00:00Z,30.2791,-87.5561,0.0,4.0,268.4,-9999.0,'1111122,1111122,1111122' 
DISL,ioos:station:DISL:PPTA:1,2012-08-02T16:30:00Z,30.2791,-87.5561,0.0,3.38,265.8,-9999.0,'1111122,1111122,1111122' 
DISL,ioos:station:DISL:PPTA:1,2012-08-02T17:00:00Z,30.2791,-87.5561,0.0,3.55,265.4,-9999.0,'1111122,1111122,1111122' 
DISL,ioos:station:DISL:PPTA:1,2012-08-02T17:30:00Z,30.2791,-87.5561,0.0,3.67,253.1,-9999.0,'1111122,1111122,1111122' 
DISL,ioos:station:DISL:PPTA:1,2012-08-02T18:00:00Z,30.2791,-87.5561,0.0,3.12,236.4,-9999.0,'1111122,1111122,1111122' 
DISL,ioos:station:DISL:PPTA:1,2012-08-02T18:30:00Z,30.2791,-87.5561,0.0,3.0,244.7,-9999.0,'1111122,1111122,1111122' 
DISL,ioos:station:DISL:PPTA:1,2012-08-02T19:00:00Z,30.2791,-87.5561,0.0,9.49,12.83,-9999.0,'1111122,1111122,1111122' 
DISL,ioos:station:DISL:PPTA:1,2012-08-02T19:30:00Z,30.2791,-87.5561,0.0,7.25,354.3,-9999.0,'1111122,1111122,1111122' 
DISL,ioos:station:DISL:PPTA:1,2012-08-02T20:00:00Z,30.2791,-87.5561,0.0,4.62,287.3,-9999.0,'1111122,1111122,1111122' 
DISL,ioos:station:DISL:PPTA:1,2012-08-02T20:30:00Z,30.2791,-87.5561,0.0,0.72,260.0,-9999.0,'1111122,1111122,1111122' 
DISL,ioos:station:DISL:PPTA:1,2012-08-02T21:00:00Z,30.2791,-87.5561,0.0,2.06,26.01,-9999.0,'1111122,1111122,1111122' 
DISL,ioos:station:DISL:PPTA:1,2012-08-02T21:30:00Z,30.2791,-87.5561,0.0,1.36,353.4,-9999.0,'1111122,1111122,1111122' 
DISL,ioos:station:DISL:PPTA:1,2012-08-02T22:00:00Z,30.2791,-87.5561,0.0,2.03,15.08,-9999.0,'1111122,1111122,1111122' 
DISL,ioos:station:DISL:PPTA:1,2012-08-02T22:30:00Z,30.2791,-87.5561,0.0,1.53,321.7,-9999.0,'1111122,1111122,1111122' 
DISL,ioos:station:DISL:PPTA:1,2012-08-02T23:00:00Z,30.2791,-87.5561,0.0,3.68,261.9,-9999.0,'1111122,1111122,1111122' 
DISL,ioos:station:DISL:PPTA:1,2012-08-02T23:30:00Z,30.2791,-87.5561,0.0,1.31,207.2,-9999.0,'1111122,1111122,1111122' 
DISL,ioos:station:DISL:PPTA:1,2012-08-03T00:00:00Z,30.2791,-87.5561,0.0,0.58,247.7,-9999.0,'1111122,1111122,1111122' 
DISL,ioos:station:DISL:PPTA:1,2012-08-03T00:30:00Z,30.2791,-87.5561,0.0,0.69,223.4,-9999.0,'1111122,1111122,1111122' 
DISL,ioos:station:DISL:PPTA:1,2012-08-03T01:00:00Z,30.2791,-87.5561,0.0,1.93,36.3,-9999.0,'1111122,1111122,1111122' 
DISL,ioos:station:DISL:PPTA:1,2012-08-03T01:30:00Z,30.2791,-87.5561,0.0,0.65,183.6,-9999.0,'1111122,1111122,1111122' 
DISL,ioos:station:DISL:PPTA:1,2012-08-03T02:00:00Z,30.2791,-87.5561,0.0,1.9,104.0,-9999.0,'1111122,1111122,1111122' 
DISL,ioos:station:DISL:PPTA:1,2012-08-03T02:30:00Z,30.2791,-87.5561,0.0,1.14,72.81,-9999.0,'1111122,1111122,1111122' 
DISL,ioos:station:DISL:PPTA:1,2012-08-03T03:00:00Z,30.2791,-87.5561,0.0,1.83,83.5,-9999.0,'1111122,1111122,1111122' 
DISL,ioos:station:DISL:PPTA:1,2012-08-03T03:30:00Z,30.2791,-87.5561,0.0,0.51,100.7,-9999.0,'1111122,1111122,1111122' 
DISL,ioos:station:DISL:PPTA:1,2012-08-03T04:00:00Z,30.2791,-87.5561,0.0,0.71,129.1,-9999.0,'1111122,1111122,1111122' 
DISL,ioos:station:DISL:PPTA:1,2012-08-03T04:30:00Z,30.2791,-87.5561,0.0,2.65,132.7,-9999.0,'1111122,1111122,1111122' 
DISL,ioos:station:DISL:PPTA:1,2012-08-03T05:00:00Z,30.2791,-87.5561,0.0,3.05,152.7,-9999.0,'1111122,1111122,1111122' 
DISL,ioos:station:DISL:PPTA:1,2012-08-03T05:30:00Z,30.2791,-87.5561,0.0,3.05,161.2,-9999.0,'1111122,1111122,1111122' 
DISL,ioos:station:DISL:PPTA:1,2012-08-03T06:00:00Z,30.2791,-87.5561,0.0,2.33,166.2,-9999.0,'1111122,1111122,1111122' 
DISL,ioos:station:DISL:PPTA:1,2012-08-03T06:30:00Z,30.2791,-87.5561,0.0,2.22,173.2,-9999.0,'1111122,1111122,1111122' 
DISL,ioos:station:DISL:PPTA:1,2012-08-03T07:00:00Z,30.2791,-87.5561,0.0,2.28,178.9,-9999.0,'1111122,1111122,1111122' 
DISL,ioos:station:DISL:PPTA:1,2012-08-03T07:30:00Z,30.2791,-87.5561,0.0,2.51,177.3,-9999.0,'1111122,1111122,1111122' 
DISL,ioos:station:DISL:PPTA:1,2012-08-03T08:00:00Z,30.2791,-87.5561,0.0,0.93,206.2,-9999.0,'1111122,1111122,1111122' 
DISL,ioos:station:DISL:PPTA:1,2012-08-03T08:30:00Z,30.2791,-87.5561,0.0,0.55,223.0,-9999.0,'1111122,1111122,1111122' 
DISL,ioos:station:DISL:PPTA:1,2012-08-03T09:00:00Z,30.2791,-87.5561,0.0,0.58,227.2,-9999.0,'1111122,1111122,1111122' 
DISL,ioos:station:DISL:PPTA:1,2012-08-03T09:30:00Z,30.2791,-87.5561,0.0,1.11,204.1,-9999.0,'1111122,1111122,1111122' 
DISL,ioos:station:DISL:PPTA:1,2012-08-03T10:00:00Z,30.2791,-87.5561,0.0,0.68,214.0,-9999.0,'1111122,1111122,1111122' 
DISL,ioos:station:DISL:PPTA:1,2012-08-03T10:30:00Z,30.2791,-87.5561,0.0,0.88,211.8,-9999.0,'1111122,1111122,1111122' 
DISL,ioos:station:DISL:PPTA:1,2012-08-03T11:00:00Z,30.2791,-87.5561,0.0,0.61,218.5,-9999.0,'1111122,1111122,1111122' 
DISL,ioos:station:DISL:PPTA:1,2012-08-03T11:30:00Z,30.2791,-87.5561,0.0,0.46,206.2,-9999.0,'1111122,1111122,1111122' 
DISL,ioos:station:DISL:PPTA:1,2012-08-03T12:00:00Z,30.2791,-87.5561,0.0,1.11,228.4,-9999.0,'1111122,1111122,1111122' 
DISL,ioos:station:DISL:PPTA:1,2012-08-03T12:30:00Z,30.2791,-87.5561,0.0,1.04,224.6,-9999.0,'1111122,1111122,1111122' 
DISL,ioos:station:DISL:PPTA:1,2012-08-03T13:00:00Z,30.2791,-87.5561,0.0,0.67,168.4,-9999.0,'1111122,1111122,1111122' 
DISL,ioos:station:DISL:PPTA:1,2012-08-03T13:30:00Z,30.2791,-87.5561,0.0,0.96,220.0,-9999.0,'1111122,1111122,1111122' 
DISL,ioos:station:DISL:PPTA:1,2012-08-03T14:00:00Z,30.2791,-87.5561,0.0,2.25,240.5,-9999.0,'1111122,1111122,1111122' 
DISL,ioos:station:DISL:PPTA:1,2012-08-03T14:30:00Z,30.2791,-87.5561,0.0,2.26,238.4,-9999.0,'1111122,1111122,1111122' 
DISL,ioos:station:DISL:PPTA:1,2012-08-03T15:00:00Z,30.2791,-87.5561,0.0,4.04,283.7,-9999.0,'1111122,1111122,1111122' 
DISL,ioos:station:DISL:PPTA:1,2012-08-03T15:30:00Z,30.2791,-87.5561,0.0,2.72,251.1,-9999.0,'1111122,1111122,1111122' 
DISL,ioos:station:DISL:PPTA:1,2012-08-03T16:00:00Z,30.2791,-87.5561,0.0,2.0,229.1,-9999.0,'1111122,1111122,1111122' 
DISL,ioos:station:DISL:PPTA:1,2012-08-03T16:30:00Z,30.2791,-87.5561,0.0,1.54,209.5,-9999.0,'1111122,1111122,1111122' 
DISL,ioos:station:DISL:PPTA:1,2012-08-03T17:00:00Z,30.2791,-87.5561,0.0,2.18,208.7,-9999.0,'1111122,1111122,1111122' 
DISL,ioos:station:DISL:PPTA:1,2012-08-03T17:30:00Z,30.2791,-87.5561,0.0,2.32,199.6,-9999.0,'1111122,1111122,1111122' 
DISL,ioos:station:DISL:PPTA:1,2012-08-03T18:00:00Z,30.2791,-87.5561,0.0,4.47,177.5,-9999.0,'1111122,1111122,1111122' 
DISL,ioos:station:DISL:PPTA:1,2012-08-03T18:30:00Z,30.2791,-87.5561,0.0,4.28,175.4,-9999.0,'1111122,1111122,1111122' 
DISL,ioos:station:DISL:PPTA:1,2012-08-03T19:00:00Z,30.2791,-87.5561,0.0,4.75,176.8,-9999.0,'1111122,1111122,1111122' 
DISL,ioos:station:DISL:PPTA:1,2012-08-03T19:30:00Z,30.2791,-87.5561,0.0,5.03,177.5,-9999.0,'1111122,1111122,1111122' 
DISL,ioos:station:DISL:PPTA:1,2012-08-03T20:00:00Z,30.2791,-87.5561,0.0,5.0,176.3,-9999.0,'1111122,1111122,1111122' 
DISL,ioos:station:DISL:PPTA:1,2012-08-03T20:30:00Z,30.2791,-87.5561,0.0,4.02,175.7,-9999.0,'1111122,1111122,1111122' 
DISL,ioos:station:DISL:PPTA:1,2012-08-03T21:00:00Z,30.2791,-87.5561,0.0,2.75,179.0,-9999.0,'1111122,1111122,1111122' 
DISL,ioos:station:DISL:PPTA:1,2012-08-03T21:30:00Z,30.2791,-87.5561,0.0,1.76,255.9,-9999.0,'1111122,1111122,1111122' 
DISL,ioos:station:DISL:PPTA:1,2012-08-03T22:00:00Z,30.2791,-87.5561,0.0,0.83,351.0,-9999.0,'1111122,1111122,1111122' 
DISL,ioos:station:DISL:PPTA:1,2012-08-03T22:30:00Z,30.2791,-87.5561,0.0,1.63,31.05,-9999.0,'1111122,1111122,1111122' 
DISL,ioos:station:DISL:PPTA:1,2012-08-03T23:00:00Z,30.2791,-87.5561,0.0,1.65,8.01,-9999.0,'1111122,1111122,1111122' 
DISL,ioos:station:DISL:PPTA:1,2012-08-03T23:30:00Z,30.2791,-87.5561,0.0,0.75,355.0,-9999.0,'1111122,1111122,1111122' 
DISL,ioos:station:DISL:PPTA:1,2012-08-04T00:00:00Z,30.2791,-87.5561,0.0,1.17,115.9,-9999.0,'1111122,1111122,1111122' 
DISL,ioos:station:DISL:PPTA:1,2012-08-04T00:30:00Z,30.2791,-87.5561,0.0,2.11,26.36,-9999.0,'1111122,1111122,1111122' 
DISL,ioos:station:DISL:PPTA:1,2012-08-04T01:00:00Z,30.2791,-87.5561,0.0,3.15,339.4,-9999.0,'1111122,1111122,1111122' 
DISL,ioos:station:DISL:PPTA:1,2012-08-04T01:30:00Z,30.2791,-87.5561,0.0,2.19,17.16,-9999.0,'1111122,1111122,1111122' 
DISL,ioos:station:DISL:PPTA:1,2012-08-04T02:00:00Z,30.2791,-87.5561,0.0,2.53,32.04,-9999.0,'1111122,1111122,1111122' 
DISL,ioos:station:DISL:PPTA:1,2012-08-04T02:30:00Z,30.2791,-87.5561,0.0,2.79,46.2,-9999.0,'1111122,1111122,1111122' 
DISL,ioos:station:DISL:PPTA:1,2012-08-04T03:00:00Z,30.2791,-87.5561,0.0,2.6,58.53,-9999.0,'1111122,1111122,1111122' 
DISL,ioos:station:DISL:PPTA:1,2012-08-04T03:30:00Z,30.2791,-87.5561,0.0,2.86,70.89,-9999.0,'1111122,1111122,1111122' 
DISL,ioos:station:DISL:PPTA:1,2012-08-04T04:00:00Z,30.2791,-87.5561,0.0,2.45,64.69,-9999.0,'1111122,1111122,1111122' 
DISL,ioos:station:DISL:PPTA:1,2012-08-04T04:30:00Z,30.2791,-87.5561,0.0,1.26,72.38,-9999.0,'1111122,1111122,1111122' 
DISL,ioos:station:DISL:PPTA:1,2012-08-04T05:00:00Z,30.2791,-87.5561,0.0,2.03,92.8,-9999.0,'1111122,1111122,1111122' 
DISL,ioos:station:DISL:PPTA:1,2012-08-04T05:30:00Z,30.2791,-87.5561,0.0,2.34,88.7,-9999.0,'1111122,1111122,1111122' 
DISL,ioos:station:DISL:PPTA:1,2012-08-04T06:00:00Z,30.2791,-87.5561,0.0,2.27,87.4,-9999.0,'1111122,1111122,1111122' 
DISL,ioos:station:DISL:PPTA:1,2012-08-04T06:30:00Z,30.2791,-87.5561,0.0,2.46,88.0,-9999.0,'1111122,1111122,1111122' 
DISL,ioos:station:DISL:PPTA:1,2012-08-04T07:00:00Z,30.2791,-87.5561,0.0,2.7,90.4,-9999.0,'1111122,1111122,1111122' 
DISL,ioos:station:DISL:PPTA:1,2012-08-04T07:30:00Z,30.2791,-87.5561,0.0,2.47,75.26,-9999.0,'1111122,1111122,1111122' 
DISL,ioos:station:DISL:PPTA:1,2012-08-04T08:00:00Z,30.2791,-87.5561,0.0,2.75,154.2,-9999.0,'1111122,1111122,1111122' 
DISL,ioos:station:DISL:PPTA:1,2012-08-04T08:30:00Z,30.2791,-87.5561,0.0,1.53,120.1,-9999.0,'1111122,1111122,1111122' 
DISL,ioos:station:DISL:PPTA:1,2012-08-04T09:00:00Z,30.2791,-87.5561,0.0,1.65,23.64,-9999.0,'1111122,1111122,1111122' 
DISL,ioos:station:DISL:PPTA:1,2012-08-04T09:30:00Z,30.2791,-87.5561,0.0,4.53,164.8,-9999.0,'1111122,1111122,1111122' 
DISL,ioos:station:DISL:PPTA:1,2012-08-04T10:00:00Z,30.2791,-87.5561,0.0,0.78,279.5,-9999.0,'1111122,1111122,1111122' 
DISL,ioos:station:DISL:PPTA:1,2012-08-04T10:30:00Z,30.2791,-87.5561,0.0,1.17,333.1,-9999.0,'1111122,1111122,1111122' 
DISL,ioos:station:DISL:PPTA:1,2012-08-04T11:00:00Z,30.2791,-87.5561,0.0,1.63,260.7,-9999.0,'1111122,1111122,1111122' 
DISL,ioos:station:DISL:PPTA:1,2012-08-04T11:30:00Z,30.2791,-87.5561,0.0,1.24,353.7,-9999.0,'1111122,1111122,1111122' 
DISL,ioos:station:DISL:PPTA:1,2012-08-04T12:00:00Z,30.2791,-87.5561,0.0,1.99,32.77,-9999.0,'1111122,1111122,1111122' 
DISL,ioos:station:DISL:PPTA:1,2012-08-04T12:30:00Z,30.2791,-87.5561,0.0,1.34,27.61,-9999.0,'1111122,1111122,1111122' 
DISL,ioos:station:DISL:PPTA:1,2012-08-04T13:00:00Z,30.2791,-87.5561,0.0,1.45,32.74,-9999.0,'1111122,1111122,1111122' 
DISL,ioos:station:DISL:PPTA:1,2012-08-04T13:30:00Z,30.2791,-87.5561,0.0,0.91,17.69,-9999.0,'1111122,1111122,1111122' 
DISL,ioos:station:DISL:PPTA:1,2012-08-04T14:00:00Z,30.2791,-87.5561,0.0,0.88,23.93,-9999.0,'1111122,1111122,1111122' 
DISL,ioos:station:DISL:PPTA:1,2012-08-04T14:30:00Z,30.2791,-87.5561,0.0,2.3,293.6,-9999.0,'1111122,1111122,1111122' 
DISL,ioos:station:DISL:PPTA:1,2012-08-04T15:00:00Z,30.2791,-87.5561,0.0,1.51,292.9,-9999.0,'1111122,1111122,1111122' 
DISL,ioos:station:DISL:PPTA:1,2012-08-04T15:30:00Z,30.2791,-87.5561,0.0,1.18,45.11,-9999.0,'1111122,1111122,1111122' 
DISL,ioos:station:DISL:PPTA:1,2012-08-04T16:00:00Z,30.2791,-87.5561,0.0,1.41,17.97,-9999.0,'1111122,1111122,1111122' 
DISL,ioos:station:DISL:PPTA:1,2012-08-04T16:30:00Z,30.2791,-87.5561,0.0,1.82,83.8,-9999.0,'1111122,1111122,1111122' 
DISL,ioos:station:DISL:PPTA:1,2012-08-04T17:00:00Z,30.2791,-87.5561,0.0,2.8,115.7,-9999.0,'1111122,1111122,1111122' 
DISL,ioos:station:DISL:PPTA:1,2012-08-04T17:30:00Z,30.2791,-87.5561,0.0,2.87,122.4,-9999.0,'1111122,1111122,1111122' 
DISL,ioos:station:DISL:PPTA:1,2012-08-04T18:00:00Z,30.2791,-87.5561,0.0,3.92,127.2,-9999.0,'1111122,1111122,1111122' 
DISL,ioos:station:DISL:PPTA:1,2012-08-04T18:30:00Z,30.2791,-87.5561,0.0,3.65,126.7,-9999.0,'1111122,1111122,1111122' 
DISL,ioos:station:DISL:PPTA:1,2012-08-04T19:00:00Z,30.2791,-87.5561,0.0,4.21,127.5,-9999.0,'1111122,1111122,1111122' 
DISL,ioos:station:DISL:PPTA:1,2012-08-04T19:30:00Z,30.2791,-87.5561,0.0,4.23,124.7,-9999.0,'1111122,1111122,1111122' 
DISL,ioos:station:DISL:PPTA:1,2012-08-04T20:00:00Z,30.2791,-87.5561,0.0,4.39,130.6,-9999.0,'1111122,1111122,1111122' 
DISL,ioos:station:DISL:PPTA:1,2012-08-04T20:30:00Z,30.2791,-87.5561,0.0,4.4,130.2,-9999.0,'1111122,1111122,1111122' 
DISL,ioos:station:DISL:PPTA:1,2012-08-04T21:00:00Z,30.2791,-87.5561,0.0,4.16,137.3,-9999.0,'1111122,1111122,1111122' 
DISL,ioos:station:DISL:PPTA:1,2012-08-04T21:30:00Z,30.2791,-87.5561,0.0,3.93,142.5,-9999.0,'1111122,1111122,1111122' 
DISL,ioos:station:DISL:PPTA:1,2012-08-04T22:00:00Z,30.2791,-87.5561,0.0,4.13,146.4,-9999.0,'1111122,1111122,1111122' 
DISL,ioos:station:DISL:PPTA:1,2012-08-04T22:30:00Z,30.2791,-87.5561,0.0,3.75,156.6,-9999.0,'1111122,1111122,1111122' 
DISL,ioos:station:DISL:PPTA:1,2012-08-04T23:00:00Z,30.2791,-87.5561,0.0,2.65,157.3,-9999.0,'1111122,1111122,1111122' 
DISL,ioos:station:DISL:PPTA:1,2012-08-04T23:30:00Z,30.2791,-87.5561,0.0,1.7,154.3,-9999.0,'1111122,1111122,1111122' 
DISL,ioos:station:DISL:PPTA:1,2012-08-05T00:00:00Z,30.2791,-87.5561,0.0,1.77,156.4,-9999.0,'1111122,1111122,1111122' 
DISL,ioos:station:DISL:PPTA:1,2012-08-05T00:30:00Z,30.2791,-87.5561,0.0,1.04,148.3,-9999.0,'1111122,1111122,1111122' 
DISL,ioos:station:DISL:PPTA:1,2012-08-05T01:00:00Z,30.2791,-87.5561,0.0,1.6,90.5,-9999.0,'1111122,1111122,1111122' 
DISL,ioos:station:DISL:PPTA:1,2012-08-05T01:30:00Z,30.2791,-87.5561,0.0,2.11,107.3,-9999.0,'1111122,1111122,1111122' 
DISL,ioos:station:DISL:PPTA:1,2012-08-05T02:00:00Z,30.2791,-87.5561,0.0,2.32,109.4,-9999.0,'1111122,1111122,1111122' 
DISL,ioos:station:DISL:PPTA:1,2012-08-05T02:30:00Z,30.2791,-87.5561,0.0,1.9,111.4,-9999.0,'1111122,1111122,1111122' 
DISL,ioos:station:DISL:PPTA:1,2012-08-05T03:00:00Z,30.2791,-87.5561,0.0,2.43,92.0,-9999.0,'1111122,1111122,1111122' 
DISL,ioos:station:DISL:PPTA:1,2012-08-05T03:30:00Z,30.2791,-87.5561,0.0,2.37,100.2,-9999.0,'1111122,1111122,1111122' 
DISL,ioos:station:DISL:PPTA:1,2012-08-05T04:00:00Z,30.2791,-87.5561,0.0,2.98,107.2,-9999.0,'1111122,1111122,1111122' 
DISL,ioos:station:DISL:PPTA:1,2012-08-05T04:30:00Z,30.2791,-87.5561,0.0,2.37,117.0,-9999.0,'1111122,1111122,1111122' 